User: anonymous   Login
Location: Irma
(52.9170°N, 111.2330°W)
Time: 20:14:23
(UTC-06:00)
Language:

Cosmos 1633 Rocket - Orbit

View from above orbital plane
View from above orbital plane
View from above satellite
View from above satellite

Ground track
Ground track

The orbit data is extracted from the following two-line orbital elements,

1 15593U 85020B   15238.89464212 +.00000173 +00000-0 +17801-4 0  9995
2 15593 082.5405 160.4716 0013161 063.8573 002.0208 14.84090639625265
Epoch (UTC): 26 August 2015 21:28:17
Eccentricity: 0.0013161
inclination: 82.5405°
perigee height: 607 km
apogee height: 625 km
right ascension of ascending node: 160.4716°
argument of perigee: 63.8573°
revolutions per day: 14.84090639
mean anomaly at epoch: 2.0208°
orbit number at epoch: 62526

The dashed part of the orbit path shows where the satellite is in the earth's shadow,  

DLR